Simultaneous Nadir Overpasses (SNOs) Predictions

Prediction of SNOs between GOES-16 and AQUA Satellite Orbit:

Table of predicted SNOs for the next 14.0 days since TLE Epoch: 3/5/2022
Index Date Time (GOES-16) GOES-16 Lat,Lon AQUA Lat,Lon Distance(km) Time Diff (sec)
1 03/05/2022 06:50:11 -0.07, -75.20 0.53, -77.91 308.96 80
2 03/07/2022 06:35:15 -0.07, -75.20 -0.13, -74.93 30.32 80
3 03/09/2022 06:22:58 -0.06, -75.20 -0.75, -71.95 370.05 80
4 03/09/2022 18:44:21 0.06, -75.21 -0.34, -77.13 218.78 80
5 03/11/2022 18:34:44 0.05, -75.21 0.29, -74.15 121.60 80
6 03/12/2022 06:55:58 -0.05, -75.21 0.81, -79.29 463.66 80
7 03/13/2022 18:22:27 0.05, -75.22 0.93, -71.16 462.53 80
8 03/14/2022 06:43:41 -0.04, -75.23 0.17, -76.31 122.62 80
9 03/16/2022 06:28:43 -0.04, -75.24 -0.43, -73.31 219.15 80
10 03/16/2022 18:50:06 0.03, -75.25 -0.64, -78.50 369.42 80
11 03/18/2022 18:37:48 0.03, -75.27 -0.03, -75.51 26.85 80
